CZ-3C DEB, 40202

Orbit data source: Space-Track

CZ-3C DEB, 40202 is space debris in HEO originally from a launch on Fri, 24 Feb 2012 UTC launched from the Xichang Space Center, China (XSC). Debris objects in space refer to the collection of defunct objects orbiting the Earth. Examples of debris include non-operational satellites, rocket bodies, and fragments generated from explosions, collisions, or faulty payload assembly.

Loading next visibility...
Identifier
40202, 2012-008M
Orbit
HEO
Country
Flag of CNCN / PRC
Related business
Manufacturer
CALT
Mission
Spacecraft
Bus & Motor
Unknown
Mass
Unknown
Launch date (UTC)
2012-02-24 (14 years ago)
Launch vehicle
Unknown
Launch site
Xichang Space Center, China (XSC)
Object type
Payload
Rocket body
Debris
Shape & HBR
Unknown shape, 0.1 m
Radar Cross Section
Medium (>0.1 m² and <1 m²)

Expand to show TLE details & history
Last TLE update: 5 days ago

TLE from 5 days ago
0 CZ-3C DEB
1 40202U 12008M   26230.81963433  .00000240  00000-0  89017-3 0  9993
2 40202  19.6827 169.7020 7125453 240.4969  31.8279  2.36574102112430
Epoch: 2026-08-18T19:40Z
TLE epoch observation values (Epoch: 2026-08-18T19:40:16.406Z)
Latitude
0.00013°
Longitude
-92.59222°
Altitude
11,694.164 km
Speed
5.23 km/s
True Right ascension
11h 18m 37s
True Declination
0° 00' 00"
Sunlit
Object was in daylight at epoch
Visualization orbit readout
Latitude
Unknown
Longitude
Unknown
Altitude
Unknown
Speed
Unknown
Apparent Right ascension
Unknown
Apparent Declination
Unknown
Sunlit
N/A
Visualization observer readout
Local Sidereal Time
21:34:35
Azimuth
Unknown
Elevation
Unknown
Doppler factor
Unknown
Orbital elements
Apogee altitude
34,373.704 km
Perigee altitude
462.154 km
Semi-major axis
23,796.066 km
Eccentricity
0.71255
Inclination
19.6827°
RAAN
169.702°
Arg. of periapsis
240.4969°
True anomaly
119.56957°
Mean anomaly
31.8279°
Eccentric anomaly
70.2529°
Mean motion
0.59127 °/min
Orbital period
608.86 mins
BSTAR
0.00089017
Loading maneuver chart data...
Computing Atmospheric mass density...
Loading historical data...
Loading historical data...
Loading historical data...
Loading historical data...
Loading historical data...
Loading historical data...
Loading historical data...

Documentation

Showing up to 5 results
|